Flag for Canada Weather past 2 weeks in Owen Sound, Ontario, Canada

Now
25 °F

Overcast.


Feels Like: 12 °F
Forecast: 15 / 29 °F
Wind: 15 mph from Southeast

Location: Wiarton

Current Time: Jan 29, 2015 at 6:09:28 AM

Latest Report: Jan 29, 2015 at 5:00 AM


Visibility: 15 mi

Pressure: 30.01 "Hg

Humidity: 46%

Dew point: 7 °F

Location of Owen SoundLocation

Historic Weather in Owen Sound — Graph

°F

Owen Sound temperature yesterday

Maximum temperature yesterday: 27 °F (at 3:00 PM)
Minimum temperature yesterday: -8 °F (at 7:00 AM)
Average temperature yesterday: 13 °F

Past Weeks' High & Low Weather Summary

 TemperatureHumidityPressure
High41 °F (Jan 17, 11:00 PM)100% (Jan 18, 1:00 PM)30.43 "Hg (Jan 18, 1:00 PM)
Low-13 °F (Jan 14, 6:00 AM)39% (Jan 28, 1:00 PM)29.44 "Hg (Jan 24, 3:00 PM)
Average17 °F79%30.02 "Hg
* Reported Jan 14 5:00 AM — Jan 29 5:00 AM, Owen Sound, Weather by CustomWeather, © 2014

Note: Actual official high and low records may vary slightly from our data, if they occured in-between our weather recording intervals... More about our weather records

Advertising

Owen Sound weather history for previous 24 hours

 ConditionsComfort  
Time TempWeatherWind HumidityBarometerVisibility
5:00 AM
Jan 29
25 °FOvercast.15 mph46%30.01 "Hg15 mi
4:00 AM23 °FOvercast.10 mph54%30.06 "Hg15 mi
3:00 AM23 °FOvercast.13 mph58%30.11 "Hg15 mi
2:00 AM23 °FOvercast.13 mph58%30.15 "Hg15 mi
1:00 AM21 °FOvercast.14 mph63%30.17 "Hg15 mi
12:00 AM21 °FOvercast.13 mph63%30.19 "Hg15 mi
11:00 PM
Jan 28
19 °FHigh level clouds.13 mph63%30.21 "Hg15 mi
10:00 PM19 °FPassing clouds.9 mph63%30.23 "Hg15 mi
9:00 PM19 °FPassing clouds.9 mph68%30.25 "Hg15 mi
8:00 PM18 °FPassing clouds.7 mph73%30.27 "Hg15 mi
7:00 PM19 °FPassing clouds.7 mph68%30.29 "Hg15 mi
6:00 PM19 °FPassing clouds.7 mph73%30.29 "Hg15 mi
5:00 PM23 °FPartly sunny.8 mph68%30.29 "Hg15 mi
4:00 PM25 °FScattered clouds.7 mph69%30.30 "Hg15 mi
3:00 PM27 °FScattered clouds.7 mph59%30.29 "Hg15 mi
2:00 PM25 °FScattered clouds.5 mph54%30.30 "Hg15 mi
1:00 PM25 °FPassing clouds.5 mph39%30.31 "Hg15 mi
12:00 PM21 °FPassing clouds.3 mph45%30.33 "Hg15 mi
11:00 AM18 °FPassing clouds.3 mph58%30.34 "Hg15 mi
10:00 AM9 °FPassing clouds.5 mph78%30.36 "Hg15 mi
9:00 AM-2 °FPassing clouds.3 mph84%30.35 "Hg15 mi
8:00 AM-8 °FSunny.No wind77%30.35 "Hg15 mi
7:00 AM-8 °FClear.No wind84%30.33 "Hg15 mi
6:00 AM-6 °FClear.3 mph84%30.31 "Hg15 mi
Weather by CustomWeather, © 2014

See weather overviewHow to use our weather pages